• In Belarus
  • List of Countries
  • For 7 days
  • Water Temperature
  • Satellite Maps
  • Weather Map
  • Weather Widgets
  • user-avatar
    Login

    Hourly Weather Setserleg

    Today, 15 November, Thursday

    Time Temperature Precipitation Wind Pressure Humidity
    00:00 -13°C° 0 mm 1 mps 615 mmHg 49%
    01:00 -13°C° 0 mm 1 mps 616 mmHg 50%
    02:00 -13°C° 0 mm 1 mps 615 mmHg 50%
    03:00 -13°C° 0 mm 1 mps 615 mmHg 50%
    04:00 -14°C° 0 mm 1 mps 615 mmHg 50%
    05:00 -14°C° 0 mm 1 mps 615 mmHg 50%
    06:00 -14°C° 0 mm 1 mps 615 mmHg 49%
    07:00 -14°C° 0 mm 1 mps 615 mmHg 48%
    08:00 -13°C° 0 mm 1 mps 616 mmHg 46%
    09:00 -12°C° 0 mm 1 mps 616 mmHg 43%
    10:00 -11°C° 0 mm 1 mps 616 mmHg 41%
    11:00 -12°C° 0 mm 2 mps 616 mmHg 37%
    12:00 -9°C° 0 mm 2 mps 616 mmHg 34%
    13:00 -8°C° 0 mm 2 mps 616 mmHg 30%
    14:00 -9°C° 0 mm 2 mps 615 mmHg 32%
    15:00 -8°C° 0 mm 1 mps 615 mmHg 33%
    16:00 -8°C° 0 mm 1 mps 615 mmHg 34%
    17:00 -9°C° 0 mm 1 mps 615 mmHg 35%
    18:00 -10°C° 0 mm 2 mps 614 mmHg 36%
    19:00 -12°C° 0 mm 2 mps 614 mmHg 37%
    20:00 -12°C° 0 mm 2 mps 614 mmHg 37%
    21:00 -12°C° 0 mm 2 mps 614 mmHg 38%
    22:00 -12°C° 0 mm 2 mps 614 mmHg 38%
    23:00 -12°C° 0 mm 2 mps 614 mmHg 38%

    Tomorrow, 16 November, Friday

    Time Temperature Precipitation Wind Pressure Humidity
    00:00 -12°C° 0 mm 2 mps 614 mmHg 38%
    01:00 -12°C° 0 mm 2 mps 613 mmHg 38%
    02:00 -12°C° 0 mm 2 mps 613 mmHg 38%
    03:00 -12°C° 0 mm 2 mps 613 mmHg 39%
    04:00 -12°C° 0 mm 2 mps 613 mmHg 39%
    05:00 -12°C° 0 mm 2 mps 613 mmHg 39%
    06:00 -12°C° 0 mm 2 mps 612 mmHg 39%
    07:00 -12°C° 0 mm 2 mps 612 mmHg 39%
    08:00 -10°C° 0 mm 2 mps 613 mmHg 39%
    09:00 -9°C° 0 mm 2 mps 613 mmHg 39%
    10:00 -8°C° 0 mm 2 mps 613 mmHg 38%
    11:00 -6°C° 0 mm 1 mps 613 mmHg 36%
    12:00 -4°C° 0 mm 1 mps 612 mmHg 34%
    13:00 -3°C° 0 mm 1 mps 612 mmHg 32%
    14:00 -4°C° 0 mm 1 mps 612 mmHg 33%
    15:00 -6°C° 0 mm 0 mps 611 mmHg 34%
    16:00 -6°C° 0 mm 0 mps 610 mmHg 35%
    17:00 -7°C° 0 mm 0 mps 610 mmHg 36%
    18:00 -7°C° 0 mm 0 mps 610 mmHg 36%
    19:00 -8°C° 0 mm 1 mps 610 mmHg 36%
    20:00 -8°C° 0 mm 1 mps 610 mmHg 37%
    21:00 -8°C° 0 mm 1 mps 610 mmHg 38%
    22:00 -8°C° 0 mm 1 mps 611 mmHg 39%
    23:00 -8°C° 0 mm 1 mps 611 mmHg 43%

    Day after tomorrow, 17 November, Saturday

    Time Temperature Precipitation Wind Pressure Humidity
    00:00 -9°C° 0 mm 1 mps 611 mmHg 46%
    01:00 -10°C° 0 mm 2 mps 611 mmHg 50%
    02:00 -10°C° 0 mm 2 mps 611 mmHg 56%
    03:00 -10°C° 0 mm 2 mps 611 mmHg 61%
    04:00 -13°C° 0 mm 3 mps 611 mmHg 67%
    05:00 -12°C° 0 mm 2 mps 611 mmHg 68%
    06:00 -13°C° 0 mm 2 mps 611 mmHg 68%
    07:00 -14°C° 0 mm 2 mps 611 mmHg 68%
    08:00 -13°C° 0 mm 2 mps 612 mmHg 65%
    09:00 -13°C° 0 mm 2 mps 612 mmHg 62%
    10:00 -13°C° 0 mm 2 mps 612 mmHg 59%
    11:00 -13°C° 0 mm 3 mps 612 mmHg 55%
    12:00 -13°C° 0 mm 3 mps 612 mmHg 51%
    13:00 -12°C° 0 mm 4 mps 612 mmHg 48%
    14:00 -12°C° 0 mm 3 mps 611 mmHg 48%
    15:00 -13°C° 0 mm 3 mps 611 mmHg 48%
    16:00 -13°C° 0 mm 3 mps 611 mmHg 49%
    17:00 -13°C° 0 mm 2 mps 611 mmHg 50%
    18:00 -13°C° 0 mm 2 mps 611 mmHg 52%
    19:00 -12°C° 0 mm 1 mps 610 mmHg 54%
    20:00 -12°C° 0 mm 1 mps 610 mmHg 55%
    21:00 -13°C° 0 mm 1 mps 610 mmHg 55%
    22:00 -13°C° 0 mm 1 mps 610 mmHg 56%
    23:00 -13°C° 0 mm 1 mps 610 mmHg 56%

    18 November, Sunday

    Time Temperature Precipitation Wind Pressure Humidity
    00:00 -13°C° 0 mm 1 mps 610 mmHg 56%
    01:00 -13°C° 0 mm 1 mps 609 mmHg 56%
    02:00 -13°C° 0 mm 1 mps 609 mmHg 56%
    03:00 -13°C° 0 mm 1 mps 609 mmHg 55%
    04:00 -14°C° 0 mm 1 mps 608 mmHg 55%
    05:00 -14°C° 0 mm 1 mps 608 mmHg 54%
    06:00 -14°C° 0 mm 1 mps 608 mmHg 53%
    07:00 -14°C° 0 mm 1 mps 608 mmHg 52%
    08:00 -13°C° 0 mm 1 mps 608 mmHg 49%
    09:00 -12°C° 0 mm 1 mps 608 mmHg 46%
    10:00 -11°C° 0 mm 1 mps 608 mmHg 43%
    11:00 -10°C° 0 mm 1 mps 608 mmHg 40%
    12:00 -10°C° 0 mm 1 mps 607 mmHg 37%
    13:00 -9°C° 0 mm 1 mps 607 mmHg 35%
    14:00 -9°C° 0 mm 1 mps 607 mmHg 38%
    15:00 -10°C° 0 mm 0 mps 606 mmHg 41%
    16:00 -10°C° 0 mm 0 mps 606 mmHg 44%
    17:00 -10°C° 0 mm 0 mps 606 mmHg 45%
    18:00 -11°C° 0 mm 0 mps 606 mmHg 46%
    19:00 -11°C° 0 mm 0 mps 606 mmHg 47%
    20:00 -12°C° 0 mm 0 mps 607 mmHg 48%
    21:00 -12°C° 0 mm 0 mps 607 mmHg 48%
    22:00 -12°C° 0 mm 0 mps 607 mmHg 49%
    23:00 -12°C° 0 mm 0 mps 607 mmHg 50%

    19 November, Monday

    Time Temperature Precipitation Wind Pressure Humidity
    00:00 -12°C° 0 mm 0 mps 607 mmHg 51%
    01:00 -12°C° 0 mm 0 mps 607 mmHg 52%
    02:00 -13°C° 0 mm 0 mps 607 mmHg 53%
    03:00 -13°C° 0 mm 0 mps 607 mmHg 55%
    04:00 -13°C° 0 mm 0 mps 607 mmHg 56%
    05:00 -13°C° 0 mm 0 mps 607 mmHg 58%
    06:00 -13°C° 0 mm 0 mps 608 mmHg 60%
    07:00 -14°C° 0 mm 0 mps 608 mmHg 61%
    08:00 -13°C° 0 mm 0 mps 609 mmHg 60%
    09:00 -13°C° 0 mm 0 mps 609 mmHg 59%
    10:00 -12°C° 0 mm 0 mps 610 mmHg 58%
    11:00 -12°C° 0 mm 1 mps 610 mmHg 56%
    12:00 -11°C° 0 mm 1 mps 610 mmHg 54%
    13:00 -13°C° 0 mm 2 mps 611 mmHg 52%
    14:00 -13°C° 0 mm 2 mps 611 mmHg 55%
    15:00 -14°C° 0 mm 2 mps 611 mmHg 58%
    16:00 -14°C° 0 mm 2 mps 611 mmHg 61%
    17:00 -13°C° 0 mm 1 mps 611 mmHg 64%
    18:00 -13°C° 0 mm 1 mps 612 mmHg 67%
    19:00 -14°C° 0 mm 1 mps 612 mmHg 70%
    20:00 -14°C° 0 mm 1 mps 612 mmHg 71%
    21:00 -14°C° 0 mm 1 mps 612 mmHg 71%
    22:00 -15°C° 0 mm 1 mps 613 mmHg 72%
    23:00 -15°C° 0 mm 1 mps 613 mmHg 72%

    20 November, Tuesday

    Time Temperature Precipitation Wind Pressure Humidity
    00:00 -15°C° 0 mm 1 mps 613 mmHg 71%
    01:00 -15°C° 0 mm 1 mps 613 mmHg 71%
    02:00 -15°C° 0 mm 1 mps 613 mmHg 70%
    03:00 -15°C° 0 mm 1 mps 613 mmHg 69%
    04:00 -15°C° 0 mm 1 mps 613 mmHg 68%
    05:00 -15°C° 0 mm 1 mps 613 mmHg 67%
    06:00 -17°C° 0 mm 2 mps 613 mmHg 66%
    07:00 -17°C° 0 mm 2 mps 613 mmHg 65%
    08:00 -16°C° 0 mm 2 mps 614 mmHg 61%
    09:00 -15°C° 0 mm 2 mps 614 mmHg 57%
    10:00 -14°C° 0 mm 2 mps 615 mmHg 54%
    11:00 -13°C° 0 mm 2 mps 614 mmHg 48%
    12:00 -12°C° 0 mm 2 mps 614 mmHg 43%
    13:00 -10°C° 0 mm 2 mps 614 mmHg 37%
    14:00 -10°C° 0 mm 2 mps 614 mmHg 38%
    15:00 -12°C° 0 mm 2 mps 613 mmHg 39%
    16:00 -10°C° 0 mm 1 mps 613 mmHg 40%
    17:00 -13°C° 0 mm 2 mps 613 mmHg 40%
    18:00 -13°C° 0 mm 2 mps 613 mmHg 41%
    19:00 -14°C° 0 mm 2 mps 613 mmHg 42%
    20:00 -14°C° 0 mm 2 mps 612 mmHg 42%
    21:00 -14°C° 0 mm 2 mps 612 mmHg 42%
    22:00 -14°C° 0 mm 2 mps 612 mmHg 43%
    23:00 -14°C° 0 mm 2 mps 612 mmHg 42%
    Show more